World > North America > United States > Missouri > Weatherby  

Weatherby, MO Hourly Weather Updates

Feedback E-mail the Weather

Quick Clicks

Weatherby, MO Weather Maps

°F °C°F °C
Weatherby Weather Map
UTC Time: 4/25/2024, 07:40
Your Time:

Weatherby, MO Regional Weather

Expires:202404250800;;334416
ASUS43 KEAX 250715
RWREAX

WEATHER ROUNDUP FOR EASTERN KANSAS AND NORTHWEST MISSOURI
NATIONAL WEATHER SERVICE KANSAS CITY/PLEASANT HILL MO
200 AM CDT THU APR 25 2024


MOZ001>008-011>017-020>025-030>033-038>040-044>046-053-054-250800-
...NORTHERN AND CENTRAL MISSOURI...
  
CITY           SKY/WX    TMP DP  RH WIND       PRES   REMARKS
ST. JOSEPH     MOCLDY    61  42  49 SE10      30.10F                  
MOSBY          MOCLDY    59  39  47 SE6       30.12F                  
HARRISONVILLE  MOCLDY    63  37  39 SE8       30.14F                  
WHITEMAN AFB   MOCLDY    56  41  57 E7        30.12F                  
CLINTON        MOCLDY    57  41  54 E8        30.13F                  
SEDALIA        MOCLDY    56  44  64 SE10      30.16F                  
MARSHALL       MOCLDY    54  45  71 E12       30.17F                  
CHILLICOTHE      N/A     56  43  61 SE5       30.17S                  
MOBERLY        MOCLDY    52  43  71 SE9       30.20F                  
KIRKSVILLE     MOCLDY    49  44  83 SE7       30.21R                  

$$


SKY/WX - Weather  TMP - Temperature  DP - Dew Point  RH - Humidity
WIND - Wind Direction/Speed PRES - Barometric Pressure VSB - Visibility
WCI - Wind Chill Index E13G22 Wind - East Wind 13 mph/Gusts of 22 mph

Trending Headlines

Trending Entertainment Headlines

Weatherby Radar Loop

Use the map search tool if you want to place a location marker on the radar map...

Weatherby Quick Facts

National Two Day Weather Forecast


E-mail the Weatherby Weather Forecast

Voice your opinion or tell us about page issues...